weather.gov     
National Weather Service

Regional Weather Roundup
NWS Homepage
This page is being discontinued on March 12, 2014.
The same data is available at this site. Please update your bookmarks.
Thank you, and we apologize for the inconvenience.
Please send an email to SR-SRH.Webmaster@noaa.gov with any concerns.


Current Version
Previous Version:    01  02  03  04  05  06  07  08  09  10  11  12  13  14  15  16  17  18  19  20  21  22  23  24  25  26  27  28  29  30  
   31  32  33  34  35  36  37  38  39  40  41  42  43  44  45  46  47  48  49  50  51  52  53  54  55  56  57  58  59  60  
[Printable]
606
ASUS46 KLOX 310512
RWRCA

SOUTHERN CALIFORNIA WEATHER ROUNDUP
NATIONAL WEATHER SERVICE OXNARD CALIFORNIA
1000 PM PDT THU OCT 30 2014

NOTE: "FAIR" INDICATES FEW OR NO CLOUDS BELOW 12,000 FEET WITH NO
SIGNIFICANT WEATHER AND/OR OBSTRUCTIONS TO VISIBILITY.

  -  STATIONS PRECEEDED BY AN ASTERISK (*) ARE NOT NWS OR FAA
     STATIONS AND ARE NOT SUBJECT TO NWS AND FAA QUALITY CONTROL.

CAZ041-042-087-310600-
LA AND ORANGE COUNTY COASTAL AREAS


CITY           SKY/WX    TMP DP  RH WIND       PRES   REMARKS
L.A. DOWNTOWN  MOCLDY    66  61  84 CALM      29.96R
L.A. AIRPORT   PTCLDY    66  62  87 W9        29.97R
LONG BEACH     CLEAR     66  61  84 CALM      29.96S

CITY           SKY/WX    TMP DP  RH WIND       PRES   REMARKS
FULLERTON      CLEAR     66  59  78 CALM      29.95S
*GETTY CENTER    N/A     59  57  94 SW3         N/A
HAWTHORNE      PTCLDY    68  62  81 W5        29.96S
*LEO CARRILLO    N/A     63  56  77 N6          N/A
*LOS ALAMITOS  PTCLDY    63  60  90 S2        29.97R
*REDONDO BEACH   N/A     65  60  86 CALM      29.96R
SANTA ANA      PTCLDY    68  60  75 CALM      29.96S
STA MONICA APT CLEAR     66  60  81 SW5       29.96R
*UCLA            N/A     63  59  88 CALM      29.94R

$$

CAZ547-548-048-310600-
LA COUNTY VALLEYS AND INLAND EMPIRE


CITY           SKY/WX    TMP DP  RH WIND       PRES   REMARKS
BURBANK        CLEAR     65  56  72 VRB3      29.96S
VAN NUYS       CLEAR     65  55  70 CALM      29.96R

CITY           SKY/WX    TMP DP  RH WIND       PRES   REMARKS
CORONA AIRPORT CLOUDY    62  58  87 CALM      29.98R
*CHATSWORTH      N/A     62  47  57 CALM      29.93S
CHINO          PTCLDY    62  57  83 CALM      29.99R
MARCH AFB      MOCLDY    63  58  83 NW2       30.00R
ONTARIO        PTCLDY    65  57  75 CALM      29.98R
*PASADENA        N/A     63  57  82 CALM        N/A
RIVERSIDE      PTCLDY    65  58  78 CALM      29.98S
SAN BERNARDINO NOT AVBL
*SAN RAFAEL HI   N/A     60  52  75 NW2         N/A
*SAUGUS          N/A     62  47  58 CALM        N/A
*WHITEMAN AP   NOT AVBL
*WOODLAND HILL   N/A     59  45  58 W1          N/A

$$

CAZ054-055-310600-
LA AND SAN BERNARDINO COUNTY MOUNTAINS


CITY           SKY/WX    TMP DP  RH WIND       PRES   REMARKS
*BIG BEAR AIRP CLOUDY    43  23  45 W5        30.17F
SANDBERG       CLEAR     59  33  37 S15       30.07R

$$

CAZ028-029-059-060-099-310600-
ANTELOPE VALLEY AND SURROUNDING AREAS


CITY           SKY/WX    TMP DP  RH WIND       PRES   REMARKS
LANCASTER      PTCLDY    64  39  39 W14       29.99R
PALMDALE       PTCLDY    65  44  46 SW21      29.98S

CITY           SKY/WX    TMP DP  RH WIND       PRES   REMARKS
29 PALMS       MOCLDY    70  34  26 CALM      30.03F
BARSTOW/DAGGET MOCLDY    69  23  17 W8        29.95S
BISHOP         PTCLDY    66  17  15 S18G25    29.96F
CHINA LAKE     PTCLDY    63  18  17 S9        29.94R
EDWARDS AFB    MOCLDY    64  37  35 W7        29.97R
MOJAVE         FAIR      64  28  25 W7        30.00R
NEEDLES        MOCLDY    74  28  18 SW8       29.92S
VICTORVILLE    MOCLDY    66  36  32 CALM      30.01S

$$

CAZ039-040-310600-
VENTURA AND SANTA BARBARA COUNTY COAST


CITY           SKY/WX    TMP DP  RH WIND       PRES   REMARKS
CAMARILLO      CLEAR     62  57  83 CALM      29.96R
NWS OXNARD       N/A     62  57  84 CALM      29.95S
OXNARD AIRPORT CLEAR     64  60  87 CALM      29.96R
*POINT MUGU    PTCLDY    64  59  83 CALM      29.96R
SBA APT/GOLETA CLEAR     60  56  86 CALM      29.95R
*SANTA BARBARA   N/A     63  56  79 CALM      30.03R
*VENTURA         N/A     62  56  80 CALM      29.99S

$$

CAZ044-045-310600-
VENTURA COUNTY VALLEYS


CITY           SKY/WX    TMP DP  RH WIND       PRES   REMARKS
*SIMI VALLEY     N/A     59  49  69 CALM      29.93R
*OJAI            N/A     53  47  82 CALM      29.92R
*FILLMORE        N/A     57  48  72 CALM      29.87R

$$

CAZ053-310600-
VENTURA COUNTY MOUNTAINS


CITY           SKY/WX    TMP DP  RH WIND       PRES   REMARKS
*LOCKWOOD VLY    N/A     45  23  42 MISG        N/A
*ROSE VALLEY     N/A     43  36  75 MISG        N/A

$$

CAZ034-035-036-310600-
CENTRAL COAST AND SANTA YNEZ VALLEY


CITY           SKY/WX    TMP DP  RH WIND       PRES   REMARKS
SAN LUIS OBISP CLEAR     59  55  87 E6        29.95R
SANTA MARIA    CLEAR     60  54  80 E3        29.96R

CITY           SKY/WX    TMP DP  RH WIND       PRES   REMARKS
*CAL POLY SLO    N/A     59  55  88 E3G12       N/A
*LOMPOC        CLEAR     55  48  76 E3        29.96S
*PISMO BEACH     N/A     60  57  88 NE1       29.95S
*SANTA YNEZ    FAIR      55  46  71 CALM      29.97R

$$

CAZ037-038-051-310600-
SAN LUIS OBISPO COUNTY INTERIOR AND CUYAMA VALLEY


CITY           SKY/WX    TMP DP  RH WIND       PRES   REMARKS
*CUYAMA          N/A     60  40  47 S3        29.90S
PASO ROBLES    PTCLDY    57  47  69 SE5       29.95R

$$

CAZ032-033-061-310600-
SOUTHERN DESERTS


CITY           SKY/WX    TMP DP  RH WIND       PRES   REMARKS
BLYTHE         CLOUDY    74  36  25 W3        29.89S
IMPERIAL       MOCLDY    68  46  45 W7        29.87R
PALM SPRINGS   MOCLDY    77  43  29 N5        29.91S
THERMAL        PTCLDY    68  48  48 CALM      29.85S

$$

ELSEWHERE ACROSS THE WESTERN UNITED STATES AND MEXICO


CITY           SKY/WX    TMP DP  RH WIND       PRES   REMARKS
DENVER, CO     PTCLDY    40  26  57 S12       30.40R WCI  33
GRAND CANYON,  PTCLDY    37  17  44 CALM      30.29R
HONOLULU, HI   MOCLDY    79  68  69 E16       30.03R
KAHULUI, MAUI  MOCLDY    75  66  73 E12G25    30.05R
LAKE TAHOE, CA PTCLDY    53  23  31 VRB6      30.04F
LAS VEGAS, NV  MOCLDY    72  27  18 SW5       29.94S
MAMMOTH LAKES, FAIR      43  18  36 NW7       30.12S
MEXICO CITY, M PTCLDY    57  46  67 NW10      30.38S
PHOENIX, AZ    PTCLDY    77  46  33 CALM      29.92R
PORTLAND, OR   LGT RAIN  57  56  96 E10       29.78F
RENO, NV       MOCLDY    56  35  45 CALM      29.96F
SALT LAKE CITY MOCLDY    51  36  56 S12       30.10S
SAN DIEGO, CA  MOCLDY    69  62  78 CALM      29.99R
SAN FRANCISCO, MOCLDY    63  57  81 SW9       29.91R
SAN JOSE, CA   MOCLDY    62  51  67 VRB5      29.90R
SEATTLE, WA    CLOUDY    54  52  93 S7        29.79S
TIJUANA, MEX   PTCLDY    66  59  77 CALM      30.00R

$$

STATION/POSITION TIME  TEMP    WIND        PRES    VSBY  WAVE
                       AIR SEA DIR/SP/G                  HT/PER
                 (UTC) (F)     (DEG/KT/KT) (MB)    (MI)  (FT/S)
POINT ARGUELLO B NOT AVBL
WEST SANTA BARBA 0500   63 64  110/  4/  6 1013.3F         6/11
POINT CONCEPTION NOT AVBL
EAST SANTA BARBA 0500   66 68  320/  4/  4 1014.6R
SANTA MONICA BAY 0500   66 68  250/  6/  6 1015.1R         3/11




U.S. Dept. of Commerce
NOAA National Weather Service
1325 East West Highway
Silver Spring, MD 20910
E-mail: w-nws.webmaster@noaa.gov
Page last modified: May 16, 2007
NATIONAL WEATHER SERVICE: for Safety, for Work, for Fun - FOR LIFE